TimePST,TemperatureF,Dew PointF,Humidity,Sea Level PressureIn,VisibilityMPH,Wind Direction,Wind SpeedMPH,Gust SpeedMPH,PrecipitationIn,Events,Conditions,WindDirDegrees,DateUTC
12:53 AM,39.0,37.0,93,30.08,5.0,ESE,13.8,-,0.04,Rain,Light Rain,110,2013-01-07 08:53:00
1:53 AM,41.0,39.0,93,30.09,10.0,ESE,6.9,-,0.02,Rain,Light Rain,120,2013-01-07 09:53:00
2:53 AM,41.0,39.0,93,30.06,10.0,ESE,10.4,16.1,0.00,,Overcast,120,2013-01-07 10:53:00
3:53 AM,44.1,41.0,89,30.04,10.0,South,17.3,21.9,0.00,,Light Drizzle,190,2013-01-07 11:53:00
4:53 AM,46.9,43.0,86,30.02,10.0,SSW,16.1,23.0,0.00,,Light Drizzle,200,2013-01-07 12:53:00
5:53 AM,48.0,44.1,86,30.01,10.0,SSW,19.6,23.0,0.00,Rain,Light Rain,200,2013-01-07 13:53:00
6:33 AM,46.4,44.6,93,30.00,10.0,SSW,19.6,27.6,0.01,Rain,Light Rain,200,2013-01-07 14:33:00
6:53 AM,48.0,44.1,86,29.99,10.0,SSW,17.3,26.5,0.02,Rain,Light Rain,200,2013-01-07 14:53:00
7:53 AM,48.0,45.0,89,30.00,10.0,SSW,20.7,32.2,0.00,,Overcast,200,2013-01-07 15:53:00
8:53 AM,48.9,45.0,86,30.03,10.0,SSW,24.2,29.9,N/A,,Overcast,200,2013-01-07 16:53:00
9:53 AM,50.0,46.0,86,30.07,10.0,SSW,19.6,27.6,N/A,,Overcast,200,2013-01-07 17:53:00
10:53 AM,50.0,46.4,87,30.09,5.0,SSW,18.4,24.2,N/A,Rain,Light Rain,200,2013-01-07 18:53:00
11:53 AM,50.0,48.0,93,30.09,6.0,SSW,18.4,25.3,0.00,Rain,Light Rain,200,2013-01-07 19:53:00
12:53 PM,51.1,48.0,89,30.09,10.0,SSW,13.8,20.7,0.00,,Overcast,200,2013-01-07 20:53:00
1:53 PM,52.0,48.0,86,30.11,10.0,South,10.4,-,N/A,,Overcast,190,2013-01-07 21:53:00
2:12 PM,51.8,48.2,88,30.13,10.0,South,9.2,-,N/A,,Overcast,180,2013-01-07 22:12:00
2:53 PM,53.6,48.2,82,30.15,10.0,SSW,10.4,-,N/A,,Overcast,200,2013-01-07 22:53:00
3:40 PM,53.6,46.4,77,30.14,10.0,SSW,11.5,-,N/A,,Overcast,210,2013-01-07 23:40:00
3:53 PM,53.1,46.9,80,30.16,10.0,SW,8.1,-,N/A,,Overcast,220,2013-01-07 23:53:00
4:53 PM,52.0,46.0,80,30.15,10.0,SSW,9.2,-,N/A,,Overcast,210,2013-01-08 00:53:00
5:53 PM,51.1,45.0,80,30.18,10.0,WSW,5.8,-,N/A,,Overcast,250,2013-01-08 01:53:00
6:53 PM,50.0,44.1,80,30.20,10.0,WSW,5.8,-,N/A,,Overcast,240,2013-01-08 02:53:00
7:53 PM,48.9,44.1,83,30.21,10.0,SW,3.5,-,N/A,,Overcast,230,2013-01-08 03:53:00
8:53 PM,48.0,44.1,86,30.22,10.0,WSW,4.6,-,N/A,,Overcast,250,2013-01-08 04:53:00
9:53 PM,46.9,44.1,90,30.22,10.0,SSW,3.5,-,N/A,,Overcast,200,2013-01-08 05:53:00
10:53 PM,46.9,43.0,86,30.23,10.0,Calm,Calm,-,N/A,,Overcast,0,2013-01-08 06:53:00
11:53 PM,46.9,44.1,90,30.22,10.0,Calm,Calm,-,N/A,,Overcast,0,2013-01-08 07:53:00